Time,TemperatureF,DewpointF,PressureIn,WindDirection,WindDirectionDegrees,WindSpeedMPH,WindSpeedGustMPH,Humidity,HourlyPrecipIn,Conditions,Clouds,dailyrainin,SolarRadiationWatts/m^2,SoftwareType,DateUTC
2013-07-16 00:04:00,74.5,68.0,30.06,ESE,107,0.0,0.0,80,0.00,,,0.00,0,Custom,2013-07-16 05:04:00,
2013-07-16 00:09:00,74.4,68.0,30.06,ESE,107,0.0,0.0,80,0.00,,,0.00,0,Custom,2013-07-16 05:09:00,
2013-07-16 00:14:00,74.3,67.0,30.06,ESE,107,0.0,0.0,79,0.00,,,0.00,0,Custom,2013-07-16 05:14:00,
2013-07-16 00:19:00,74.3,68.0,30.06,ESE,107,0.0,0.0,80,0.00,,,0.00,0,Custom,2013-07-16 05:19:00,
2013-07-16 00:24:00,74.1,67.0,30.07,ESE,107,0.0,0.0,80,0.00,,,0.00,0,Custom,2013-07-16 05:24:00,
2013-07-16 00:29:00,73.9,68.0,30.07,ESE,107,0.0,0.0,81,0.00,,,0.00,0,Custom,2013-07-16 05:29:00,
2013-07-16 00:34:00,73.7,67.0,30.07,ESE,107,0.0,0.0,81,0.00,,,0.00,0,Custom,2013-07-16 05:34:00,
2013-07-16 00:39:00,73.6,67.0,30.07,ESE,107,0.0,0.0,81,0.00,,,0.00,0,Custom,2013-07-16 05:39:00,
2013-07-16 00:44:00,73.3,67.0,30.07,ESE,107,0.0,0.0,82,0.00,,,0.00,0,Custom,2013-07-16 05:44:00,
2013-07-16 00:49:00,73.1,67.0,30.07,ESE,107,0.0,0.0,83,0.00,,,0.00,0,Custom,2013-07-16 05:49:00,
2013-07-16 00:54:00,73.1,67.0,30.07,ESE,107,0.0,0.0,83,0.00,,,0.00,0,Custom,2013-07-16 05:54:00,
2013-07-16 00:59:00,73.3,68.0,30.07,ESE,107,0.0,0.0,83,0.00,,,0.00,0,Custom,2013-07-16 05:59:00,
2013-07-16 01:04:00,73.3,68.0,30.08,ESE,107,0.0,0.0,83,0.00,,,0.00,0,Custom,2013-07-16 06:04:00,
2013-07-16 01:09:00,73.2,68.0,30.07,ESE,107,0.0,0.0,83,0.00,,,0.00,0,Custom,2013-07-16 06:09:00,
2013-07-16 01:14:00,73.3,68.0,30.07,ESE,107,0.0,0.0,83,0.00,,,0.00,0,Custom,2013-07-16 06:14:00,
2013-07-16 01:19:00,73.3,68.0,30.08,ESE,107,0.0,0.0,83,0.00,,,0.00,0,Custom,2013-07-16 06:19:00,
2013-07-16 01:24:00,73.4,68.0,30.08,ESE,107,0.0,0.0,83,0.00,,,0.00,0,Custom,2013-07-16 06:24:00,
2013-07-16 01:29:00,73.6,68.0,30.08,ESE,107,0.0,0.0,84,0.00,,,0.00,0,Custom,2013-07-16 06:29:00,
2013-07-16 01:34:00,73.7,68.0,30.08,ESE,107,0.0,0.0,83,0.00,,,0.00,0,Custom,2013-07-16 06:34:00,
2013-07-16 01:39:00,73.9,68.0,30.08,ESE,107,0.0,0.0,83,0.00,,,0.00,0,Custom,2013-07-16 06:39:00,
2013-07-16 01:44:00,74.0,68.0,30.08,ESE,107,0.0,0.0,83,0.00,,,0.00,0,Custom,2013-07-16 06:44:00,
2013-07-16 01:49:00,74.4,69.0,30.08,ESE,107,0.0,1.0,82,0.00,,,0.00,0,Custom,2013-07-16 06:49:00,
2013-07-16 01:54:00,74.5,69.0,30.07,ESE,107,0.0,0.0,82,0.00,,,0.00,0,Custom,2013-07-16 06:54:00,
2013-07-16 01:59:00,74.4,69.0,30.07,ESE,107,0.0,0.0,82,0.00,,,0.00,0,Custom,2013-07-16 06:59:00,
2013-07-16 02:04:00,74.1,69.0,30.07,ESE,107,0.0,0.0,82,0.00,,,0.00,0,Custom,2013-07-16 07:04:00,
2013-07-16 02:09:00,74.1,69.0,30.07,ESE,107,0.0,0.0,83,0.00,,,0.00,0,Custom,2013-07-16 07:09:00,
2013-07-16 02:14:00,74.0,69.0,30.07,ESE,107,0.0,0.0,83,0.00,,,0.00,0,Custom,2013-07-16 07:14:00,
2013-07-16 02:19:00,74.0,69.0,30.07,ESE,107,0.0,0.0,83,0.00,,,0.00,0,Custom,2013-07-16 07:19:00,
2013-07-16 02:24:00,73.6,69.0,30.07,ESE,107,0.0,0.0,84,0.00,,,0.00,0,Custom,2013-07-16 07:24:00,
2013-07-16 02:29:00,73.5,68.0,30.07,ESE,107,0.0,0.0,84,0.00,,,0.00,0,Custom,2013-07-16 07:29:00,
2013-07-16 02:34:00,73.4,69.0,30.07,ESE,107,0.0,0.0,85,0.00,,,0.00,0,Custom,2013-07-16 07:34:00,
2013-07-16 02:39:00,73.5,69.0,30.07,ESE,107,0.0,0.0,84,0.00,,,0.00,0,Custom,2013-07-16 07:39:00,
2013-07-16 02:44:00,73.5,69.0,30.07,ESE,106,0.0,0.0,85,0.00,,,0.00,0,Custom,2013-07-16 07:44:00,
2013-07-16 02:49:00,73.4,69.0,30.07,ESE,106,0.0,0.0,85,0.00,,,0.00,0,Custom,2013-07-16 07:49:00,
2013-07-16 02:54:00,73.2,68.0,30.07,ESE,107,0.0,0.0,85,0.00,,,0.00,0,Custom,2013-07-16 07:54:00,
2013-07-16 02:59:00,73.0,68.0,30.07,ESE,107,0.0,0.0,86,0.00,,,0.00,0,Custom,2013-07-16 07:59:00,
2013-07-16 03:04:00,72.9,69.0,30.07,ESE,107,0.0,0.0,86,0.00,,,0.00,0,Custom,2013-07-16 08:04:00,
2013-07-16 03:09:00,72.7,68.0,30.07,ESE,107,0.0,0.0,86,0.00,,,0.00,0,Custom,2013-07-16 08:09:00,
2013-07-16 03:14:00,72.6,68.0,30.07,ESE,107,0.0,0.0,86,0.00,,,0.00,0,Custom,2013-07-16 08:14:00,
2013-07-16 03:19:00,72.7,69.0,30.07,ESE,107,0.0,0.0,87,0.00,,,0.00,0,Custom,2013-07-16 08:19:00,
2013-07-16 03:24:00,72.7,69.0,30.07,ESE,107,0.0,0.0,87,0.00,,,0.00,0,Custom,2013-07-16 08:24:00,
2013-07-16 03:29:00,72.6,68.0,30.07,ESE,107,0.0,0.0,86,0.00,,,0.00,0,Custom,2013-07-16 08:29:00,
2013-07-16 03:34:00,72.5,68.0,30.07,ESE,107,0.0,0.0,87,0.00,,,0.00,0,Custom,2013-07-16 08:34:00,
2013-07-16 03:39:00,72.6,68.0,30.07,ESE,107,0.0,0.0,87,0.00,,,0.00,0,Custom,2013-07-16 08:39:00,
2013-07-16 03:44:00,72.4,68.0,30.08,ESE,107,0.0,0.0,87,0.00,,,0.00,0,Custom,2013-07-16 08:44:00,
2013-07-16 03:49:00,72.3,68.0,30.08,ESE,107,0.0,0.0,87,0.00,,,0.00,0,Custom,2013-07-16 08:49:00,
2013-07-16 03:54:00,72.2,68.0,30.08,ESE,107,0.0,1.0,87,0.00,,,0.00,0,Custom,2013-07-16 08:54:00,
2013-07-16 03:59:00,72.2,68.0,30.07,ESE,107,0.0,1.0,88,0.00,,,0.00,0,Custom,2013-07-16 08:59:00,
2013-07-16 04:04:00,72.2,68.0,30.07,ESE,113,0.0,1.0,87,0.00,,,0.00,0,Custom,2013-07-16 09:04:00,
2013-07-16 04:09:00,72.2,68.0,30.08,ESE,113,0.0,0.0,87,0.00,,,0.00,0,Custom,2013-07-16 09:09:00,
2013-07-16 04:14:00,72.1,68.0,30.08,ESE,113,0.0,0.0,87,0.00,,,0.00,0,Custom,2013-07-16 09:14:00,
2013-07-16 04:19:00,72.0,68.0,30.07,ESE,113,0.0,0.0,88,0.00,,,0.00,0,Custom,2013-07-16 09:19:00,
2013-07-16 04:24:00,72.0,68.0,30.08,ESE,113,0.0,0.0,88,0.00,,,0.00,0,Custom,2013-07-16 09:24:00,
2013-07-16 04:29:00,71.7,68.0,30.08,ESE,113,0.0,0.0,88,0.00,,,0.00,0,Custom,2013-07-16 09:29:00,
2013-07-16 04:34:00,71.7,68.0,30.08,ESE,113,0.0,0.0,88,0.00,,,0.00,0,Custom,2013-07-16 09:34:00,
2013-07-16 04:39:00,71.6,68.0,30.08,ESE,113,0.0,0.0,88,0.00,,,0.00,0,Custom,2013-07-16 09:39:00,
2013-07-16 04:44:00,71.4,68.0,30.08,ESE,113,0.0,0.0,89,0.00,,,0.00,0,Custom,2013-07-16 09:44:00,
2013-07-16 04:49:00,71.2,68.0,30.08,ESE,113,0.0,0.0,89,0.00,,,0.00,0,Custom,2013-07-16 09:49:00,
2013-07-16 04:54:00,71.0,68.0,30.09,ESE,113,0.0,0.0,89,0.00,,,0.00,0,Custom,2013-07-16 09:54:00,
2013-07-16 04:59:00,71.0,68.0,30.08,ESE,113,0.0,0.0,89,0.00,,,0.00,0,Custom,2013-07-16 09:59:00,
2013-07-16 05:04:00,70.9,68.0,30.09,ESE,113,0.0,0.0,90,0.00,,,0.00,0,Custom,2013-07-16 10:04:00,
2013-07-16 05:09:00,70.7,68.0,30.09,ESE,113,0.0,0.0,90,0.00,,,0.00,0,Custom,2013-07-16 10:09:00,
2013-07-16 05:14:00,70.7,68.0,30.09,ESE,113,0.0,0.0,90,0.00,,,0.00,0,Custom,2013-07-16 10:14:00,
2013-07-16 05:19:00,70.6,68.0,30.09,ESE,113,0.0,0.0,91,0.00,,,0.00,0,Custom,2013-07-16 10:19:00,
2013-07-16 05:24:00,70.6,68.0,30.09,ESE,113,0.0,0.0,91,0.00,,,0.00,0,Custom,2013-07-16 10:24:00,
2013-07-16 05:29:00,70.6,68.0,30.09,ESE,113,0.0,0.0,91,0.00,,,0.00,0,Custom,2013-07-16 10:29:00,
2013-07-16 05:34:00,70.6,68.0,30.09,ESE,113,0.0,0.0,91,0.00,,,0.00,0,Custom,2013-07-16 10:34:00,
2013-07-16 05:39:00,70.5,68.0,30.09,ESE,113,0.0,0.0,91,0.00,,,0.00,0,Custom,2013-07-16 10:39:00,
2013-07-16 05:44:00,70.2,67.0,30.09,ESE,113,0.0,0.0,91,0.00,,,0.00,0,Custom,2013-07-16 10:44:00,
2013-07-16 05:49:00,70.0,67.0,30.09,ESE,113,0.0,0.0,91,0.00,,,0.00,0,Custom,2013-07-16 10:49:00,
2013-07-16 05:54:00,69.8,67.0,30.09,ESE,113,0.0,0.0,91,0.00,,,0.00,0,Custom,2013-07-16 10:54:00,
2013-07-16 05:59:00,69.6,67.0,30.09,ESE,113,0.0,0.0,92,0.00,,,0.00,0,Custom,2013-07-16 10:59:00,
2013-07-16 06:04:00,69.5,67.0,30.10,ESE,113,0.0,0.0,91,0.00,,,0.00,0,Custom,2013-07-16 11:04:00,
2013-07-16 06:09:00,69.6,67.0,30.10,ESE,113,0.0,0.0,92,0.00,,,0.00,0,Custom,2013-07-16 11:09:00,
2013-07-16 06:14:00,69.4,67.0,30.10,ESE,113,0.0,0.0,92,0.00,,,0.00,0,Custom,2013-07-16 11:14:00,
2013-07-16 06:19:00,69.3,67.0,30.10,ESE,113,0.0,0.0,92,0.00,,,0.00,8.19,Custom,2013-07-16 11:19:00,
2013-07-16 06:25:00,69.3,67.0,30.10,ESE,113,0.0,0.0,92,0.00,,,0.00,10.53,Custom,2013-07-16 11:25:00,
2013-07-16 06:30:00,69.4,67.0,30.10,ESE,113,0.0,0.0,93,0.00,,,0.00,13.26,Custom,2013-07-16 11:30:00,
2013-07-16 06:35:00,69.5,67.0,30.10,ESE,113,0.0,0.0,93,0.00,,,0.00,14.82,Custom,2013-07-16 11:35:00,
2013-07-16 06:40:00,69.5,67.0,30.10,ESE,113,0.0,0.0,92,0.00,,,0.00,16.77,Custom,2013-07-16 11:40:00,
2013-07-16 06:45:00,69.7,67.0,30.10,ESE,113,0.0,0.0,93,0.00,,,0.00,18.72,Custom,2013-07-16 11:45:00,
2013-07-16 06:50:00,69.7,67.0,30.11,ESE,113,0.0,0.0,92,0.00,,,0.00,22.23,Custom,2013-07-16 11:50:00,
2013-07-16 06:55:00,69.8,67.0,30.11,ESE,113,0.0,0.0,92,0.00,,,0.00,25.74,Custom,2013-07-16 11:55:00,
2013-07-16 07:00:00,70.2,68.0,30.11,ESE,113,0.0,0.0,93,0.00,,,0.00,27.3,Custom,2013-07-16 12:00:00,
2013-07-16 07:05:00,70.5,68.0,30.11,ESE,113,0.0,0.0,92,0.00,,,0.00,30.03,Custom,2013-07-16 12:05:00,
2013-07-16 07:10:00,71.3,69.0,30.11,ESE,113,0.0,0.0,92,0.00,,,0.00,31.98,Custom,2013-07-16 12:10:00,
2013-07-16 07:15:00,71.5,69.0,30.11,ESE,113,0.0,0.0,91,0.00,,,0.00,35.1,Custom,2013-07-16 12:15:00,
2013-07-16 07:20:00,72.4,70.0,30.11,ESE,113,0.0,0.0,91,0.00,,,0.00,69.81,Custom,2013-07-16 12:20:00,
2013-07-16 07:25:00,73.7,69.0,30.11,ESE,113,0.0,0.0,86,0.00,,,0.00,79.17,Custom,2013-07-16 12:25:00,
2013-07-16 07:30:00,74.7,69.0,30.11,ESE,113,0.0,0.0,83,0.00,,,0.00,90.48,Custom,2013-07-16 12:30:00,
2013-07-16 07:35:00,75.6,69.0,30.12,ESE,113,0.0,0.0,80,0.00,,,0.00,103.35,Custom,2013-07-16 12:35:00,
2013-07-16 07:40:00,76.4,69.0,30.11,ESE,113,0.0,0.0,79,0.00,,,0.00,116.61,Custom,2013-07-16 12:40:00,
2013-07-16 07:45:00,77.0,69.0,30.12,ESE,113,0.0,1.0,77,0.00,,,0.00,134.16,Custom,2013-07-16 12:45:00,
2013-07-16 07:50:00,78.1,69.0,30.13,ESE,113,0.0,0.0,75,0.00,,,0.00,157.17,Custom,2013-07-16 12:50:00,
2013-07-16 07:55:00,78.0,69.0,30.12,ESE,115,0.0,0.0,74,0.00,,,0.00,175.11,Custom,2013-07-16 12:55:00,
2013-07-16 08:00:00,78.9,70.0,30.13,ESE,115,0.0,0.0,74,0.00,,,0.00,195,Custom,2013-07-16 13:00:00,
2013-07-16 08:05:00,79.1,69.0,30.13,ESE,115,0.0,0.0,72,0.00,,,0.00,212.94,Custom,2013-07-16 13:05:00,
2013-07-16 08:10:00,79.4,69.0,30.13,ESE,115,0.0,0.0,71,0.00,,,0.00,231.66,Custom,2013-07-16 13:10:00,
2013-07-16 08:15:00,79.8,69.0,30.13,SSW,195,3.0,0.0,70,0.00,,,0.00,250.38,Custom,2013-07-16 13:15:00,
2013-07-16 08:20:00,79.8,69.0,30.13,SSW,195,0.0,3.0,71,0.00,,,0.00,269.49,Custom,2013-07-16 13:20:00,
2013-07-16 08:25:00,79.9,69.0,30.13,SSW,198,1.0,4.0,70,0.00,,,0.00,285.48,Custom,2013-07-16 13:25:00,
2013-07-16 08:30:00,80.5,70.0,30.13,SSW,194,4.0,4.0,69,0.00,,,0.00,304.2,Custom,2013-07-16 13:30:00,
2013-07-16 08:35:00,81.2,70.0,30.14,SSW,194,0.0,4.0,69,0.00,,,0.00,324.87,Custom,2013-07-16 13:35:00,
2013-07-16 08:40:00,81.6,70.0,30.14,SSW,194,0.0,0.0,68,0.00,,,0.00,341.25,Custom,2013-07-16 13:40:00,
2013-07-16 08:45:00,81.5,70.0,30.14,SSW,194,0.0,4.0,67,0.00,,,0.00,354.12,Custom,2013-07-16 13:45:00,
2013-07-16 08:50:00,82.4,70.0,30.14,SSW,194,0.0,0.0,65,0.00,,,0.00,369.72,Custom,2013-07-16 13:50:00,
2013-07-16 08:55:00,82.5,70.0,30.14,SSW,192,0.0,3.0,66,0.00,,,0.00,386.88,Custom,2013-07-16 13:55:00,
2013-07-16 09:00:00,82.7,69.0,30.14,South,191,0.0,0.0,64,0.00,,,0.00,401.31,Custom,2013-07-16 14:00:00,
2013-07-16 09:05:00,83.3,70.0,30.14,South,189,0.0,0.0,63,0.00,,,0.00,418.47,Custom,2013-07-16 14:05:00,
2013-07-16 09:10:00,82.7,69.0,30.14,South,190,0.0,3.0,64,0.00,,,0.00,431.73,Custom,2013-07-16 14:10:00,
2013-07-16 09:15:00,83.3,70.0,30.14,South,190,0.0,4.0,64,0.00,,,0.00,447.33,Custom,2013-07-16 14:15:00,
2013-07-16 09:20:00,84.0,70.0,30.14,South,185,0.0,0.0,62,0.00,,,0.00,464.1,Custom,2013-07-16 14:20:00,
2013-07-16 09:25:00,84.1,69.0,30.14,South,185,0.0,0.0,61,0.00,,,0.00,476.97,Custom,2013-07-16 14:25:00,
2013-07-16 09:30:00,84.6,71.0,30.14,SE,133,0.0,0.0,63,0.00,,,0.00,489.84,Custom,2013-07-16 14:30:00,
2013-07-16 09:35:00,84.3,70.0,30.14,South,179,0.0,3.0,62,0.00,,,0.00,508.56,Custom,2013-07-16 14:35:00,
2013-07-16 09:40:00,84.6,70.0,30.14,East,85,0.0,0.0,62,0.00,,,0.00,522.6,Custom,2013-07-16 14:40:00,
2013-07-16 09:45:00,84.4,70.0,30.14,ESE,109,0.0,3.0,63,0.00,,,0.00,537.42,Custom,2013-07-16 14:45:00,
2013-07-16 09:50:00,85.0,70.0,30.14,ESE,109,0.0,0.0,60,0.00,,,0.00,553.8,Custom,2013-07-16 14:50:00,
2013-07-16 09:55:00,85.6,70.0,30.15,ESE,109,0.0,0.0,60,0.00,,,0.00,567.45,Custom,2013-07-16 14:55:00,
2013-07-16 10:00:00,85.9,71.0,30.14,South,187,0.0,3.0,61,0.00,,,0.00,582.66,Custom,2013-07-16 15:00:00,
2013-07-16 10:05:00,86.7,71.0,30.14,ESE,114,0.0,0.0,60,0.00,,,0.00,597.48,Custom,2013-07-16 15:05:00,
2013-07-16 10:10:00,86.3,70.0,30.14,South,183,0.0,4.0,58,0.00,,,0.00,613.47,Custom,2013-07-16 15:10:00,
2013-07-16 10:15:00,85.9,70.0,30.14,South,189,0.0,5.0,59,0.00,,,0.00,629.85,Custom,2013-07-16 15:15:00,
2013-07-16 10:20:00,86.1,69.0,30.14,ESE,118,0.0,1.0,57,0.00,,,0.00,636.87,Custom,2013-07-16 15:20:00,
2013-07-16 10:25:00,87.3,71.0,30.14,ESE,114,0.0,0.0,60,0.00,,,0.00,654.42,Custom,2013-07-16 15:25:00,
2013-07-16 10:30:00,86.8,70.0,30.14,SSW,192,0.0,5.0,57,0.00,,,0.00,664.17,Custom,2013-07-16 15:30:00,
2013-07-16 10:35:00,86.8,69.0,30.15,SW,225,0.0,4.0,57,0.00,,,0.00,691.86,Custom,2013-07-16 15:35:00,
2013-07-16 10:40:00,88.3,71.0,30.15,SW,222,0.0,0.0,56,0.00,,,0.00,685.62,Custom,2013-07-16 15:40:00,
2013-07-16 10:45:00,88.7,70.0,30.15,SW,222,0.0,0.0,54,0.00,,,0.00,700.44,Custom,2013-07-16 15:45:00,
2013-07-16 10:50:00,88.8,70.0,30.15,East,97,0.0,0.0,55,0.00,,,0.00,734.76,Custom,2013-07-16 15:50:00,
2013-07-16 10:55:00,88.6,71.0,30.15,ESE,105,0.0,3.0,55,0.00,,,0.00,774.54,Custom,2013-07-16 15:55:00,
2013-07-16 11:00:00,88.0,70.0,30.15,South,185,0.0,0.0,55,0.00,,,0.00,812.37,Custom,2013-07-16 16:00:00,
2013-07-16 11:05:00,89.2,70.0,30.16,East,94,0.0,0.0,53,0.00,,,0.00,727.74,Custom,2013-07-16 16:05:00,
2013-07-16 11:10:00,89.5,71.0,30.15,ENE,75,0.0,2.0,55,0.00,,,0.00,817.05,Custom,2013-07-16 16:10:00,
2013-07-16 11:15:00,89.2,72.0,30.16,SSE,150,0.0,3.0,56,0.00,,,0.00,778.83,Custom,2013-07-16 16:15:00,
2013-07-16 11:20:00,90.1,71.0,30.15,SE,134,0.0,0.0,54,0.00,,,0.00,781.56,Custom,2013-07-16 16:20:00,
2013-07-16 11:25:00,89.7,71.0,30.15,East,89,0.0,4.0,54,0.00,,,0.00,757.77,Custom,2013-07-16 16:25:00,
2013-07-16 11:30:00,89.6,71.0,30.15,SSE,149,0.0,0.0,54,0.00,,,0.00,774.93,Custom,2013-07-16 16:30:00,
2013-07-16 11:35:00,90.1,70.0,30.15,SSE,149,0.0,0.0,51,0.00,,,0.00,788.19,Custom,2013-07-16 16:35:00,
2013-07-16 11:40:00,89.5,71.0,30.15,East,101,0.0,4.0,54,0.00,,,0.00,812.37,Custom,2013-07-16 16:40:00,
2013-07-16 11:45:00,89.3,71.0,30.15,ESE,118,0.0,4.0,55,0.00,,,0.00,817.83,Custom,2013-07-16 16:45:00,
2013-07-16 11:50:00,88.8,72.0,30.15,ESE,118,0.0,0.0,58,0.00,,,0.00,827.97,Custom,2013-07-16 16:50:00,
2013-07-16 11:55:00,91.1,72.0,30.15,ESE,123,0.0,0.0,53,0.00,,,0.00,830.31,Custom,2013-07-16 16:55:00,
2013-07-16 12:00:00,90.3,71.0,30.15,ENE,60,0.0,4.0,54,0.00,,,0.00,822.51,Custom,2013-07-16 17:00:00,
2013-07-16 12:05:00,88.7,70.0,30.15,East,88,0.0,3.0,53,0.00,,,0.00,728.52,Custom,2013-07-16 17:05:00,
2013-07-16 12:10:00,90.6,72.0,30.15,ESE,105,0.0,3.0,55,0.00,,,0.00,802.62,Custom,2013-07-16 17:10:00,
2013-07-16 12:15:00,90.3,71.0,30.15,ESE,104,0.0,0.0,53,0.00,,,0.00,775.71,Custom,2013-07-16 17:15:00,
2013-07-16 12:20:00,90.4,72.0,30.15,East,91,0.0,4.0,54,0.00,,,0.00,804.57,Custom,2013-07-16 17:20:00,
2013-07-16 12:25:00,92.1,73.0,30.15,East,97,0.0,3.0,54,0.00,,,0.00,796.77,Custom,2013-07-16 17:25:00,
2013-07-16 12:30:00,92.1,72.0,30.15,ESE,111,0.0,0.0,52,0.00,,,0.00,780.39,Custom,2013-07-16 17:30:00,
2013-07-16 12:35:00,92.3,72.0,30.15,ESE,112,0.0,0.0,51,0.00,,,0.00,787.8,Custom,2013-07-16 17:35:00,
2013-07-16 12:40:00,91.6,72.0,30.15,East,81,0.0,4.0,53,0.00,,,0.00,804.57,Custom,2013-07-16 17:40:00,
2013-07-16 12:45:00,92.0,73.0,30.14,ESE,120,0.0,0.0,54,0.00,,,0.00,796.38,Custom,2013-07-16 17:45:00,
2013-07-16 12:50:00,91.0,71.0,30.15,East,88,0.0,6.0,53,0.00,,,0.00,774.15,Custom,2013-07-16 17:50:00,
2013-07-16 12:55:00,88.3,71.0,30.14,ENE,64,0.0,3.0,56,0.00,,,0.00,778.44,Custom,2013-07-16 17:55:00,
2013-07-16 13:00:00,91.0,71.0,30.14,ENE,66,0.0,0.0,53,0.00,,,0.00,396.63,Custom,2013-07-16 18:00:00,
2013-07-16 13:05:00,89.5,72.0,30.14,ENE,67,0.0,0.0,56,0.00,,,0.00,182.91,Custom,2013-07-16 18:05:00,
2013-07-16 13:10:00,88.9,71.0,30.14,ENE,67,0.0,0.0,55,0.00,,,0.00,223.86,Custom,2013-07-16 18:10:00,
2013-07-16 13:15:00,91.0,73.0,30.14,SE,132,0.0,4.0,56,0.00,,,0.00,737.88,Custom,2013-07-16 18:15:00,
2013-07-16 13:20:00,92.3,73.0,30.14,ENE,59,0.0,5.0,53,0.00,,,0.00,757.77,Custom,2013-07-16 18:20:00,
2013-07-16 13:25:00,91.4,73.0,30.14,East,95,0.0,5.0,55,0.00,,,0.00,758.55,Custom,2013-07-16 18:25:00,
2013-07-16 13:30:00,92.2,71.0,30.14,East,96,0.0,0.0,51,0.00,,,0.00,781.17,Custom,2013-07-16 18:30:00,
2013-07-16 13:35:00,92.8,71.0,30.14,ESE,114,0.0,0.0,49,0.00,,,0.00,154.44,Custom,2013-07-16 18:35:00,
2013-07-16 13:40:00,89.4,69.0,30.14,ENE,68,0.0,4.0,52,0.00,,,0.00,226.2,Custom,2013-07-16 18:40:00,
2013-07-16 13:45:00,89.6,71.0,30.14,ENE,68,0.0,0.0,55,0.00,,,0.00,343.2,Custom,2013-07-16 18:45:00,
2013-07-16 13:50:00,92.5,74.0,30.13,ENE,68,0.0,0.0,55,0.00,,,0.00,753.09,Custom,2013-07-16 18:50:00,
2013-07-16 13:55:00,91.1,72.0,30.14,East,84,3.0,6.0,53,0.00,,,0.00,230.88,Custom,2013-07-16 18:55:00,
2013-07-16 14:00:00,90.0,71.0,30.13,East,100,0.0,5.0,55,0.00,,,0.00,767.52,Custom,2013-07-16 19:00:00,
2013-07-16 14:05:00,91.2,71.0,30.13,SE,128,0.0,5.0,51,0.00,,,0.00,181.74,Custom,2013-07-16 19:05:00,
2013-07-16 14:10:00,89.3,70.0,30.13,SSE,167,0.0,5.0,54,0.00,,,0.00,217.62,Custom,2013-07-16 19:10:00,
2013-07-16 14:15:00,92.0,73.0,30.12,South,179,0.0,4.0,54,0.00,,,0.00,772.98,Custom,2013-07-16 19:15:00,
2013-07-16 14:20:00,93.0,71.0,30.12,East,98,0.0,6.0,49,0.00,,,0.00,757.77,Custom,2013-07-16 19:20:00,
2013-07-16 14:25:00,93.2,72.0,30.12,South,191,5.0,7.0,51,0.00,,,0.00,724.62,Custom,2013-07-16 19:25:00,
2013-07-16 14:30:00,94.8,70.0,30.12,SSW,202,0.0,7.0,45,0.00,,,0.00,755.43,Custom,2013-07-16 19:30:00,
2013-07-16 14:35:00,96.1,71.0,30.12,South,175,2.0,7.0,45,0.00,,,0.00,678.6,Custom,2013-07-16 19:35:00,
2013-07-16 14:40:00,95.2,72.0,30.12,South,184,0.0,7.0,47,0.00,,,0.00,800.28,Custom,2013-07-16 19:40:00,
2013-07-16 14:45:00,94.3,70.0,30.13,South,188,0.0,0.0,45,0.00,,,0.00,129.48,Custom,2013-07-16 19:45:00,
2013-07-16 14:50:00,90.4,69.0,30.12,ESE,113,0.0,7.0,50,0.00,,,0.00,123.63,Custom,2013-07-16 19:50:00,
2013-07-16 14:55:00,89.8,70.0,30.11,ESE,102,0.0,0.0,52,0.00,,,0.00,789.75,Custom,2013-07-16 19:55:00,
2013-07-16 15:00:00,90.4,70.0,30.12,ESE,102,0.0,0.0,52,0.00,,,0.00,342.42,Custom,2013-07-16 20:00:00,
2013-07-16 15:05:00,91.7,71.0,30.11,ESE,105,0.0,3.0,51,0.00,,,0.00,224.64,Custom,2013-07-16 20:05:00,
2013-07-16 15:10:00,94.9,70.0,30.11,South,171,0.0,4.0,45,0.00,,,0.00,819,Custom,2013-07-16 20:10:00,
2013-07-16 15:15:00,95.0,71.0,30.11,South,173,0.0,2.0,45,0.00,,,0.00,840.84,Custom,2013-07-16 20:15:00,
2013-07-16 15:20:00,95.5,70.0,30.11,South,188,0.0,7.0,44,0.00,,,0.00,840.45,Custom,2013-07-16 20:20:00,
2013-07-16 15:25:00,93.1,69.0,30.11,SE,135,0.0,7.0,45,0.00,,,0.00,666.51,Custom,2013-07-16 20:25:00,
2013-07-16 15:30:00,94.9,69.0,30.11,SSW,199,0.0,4.0,44,0.00,,,0.00,804.57,Custom,2013-07-16 20:30:00,
2013-07-16 15:35:00,96.2,72.0,30.11,South,180,0.0,3.0,45,0.00,,,0.00,811.2,Custom,2013-07-16 20:35:00,
2013-07-16 15:40:00,96.4,70.0,30.11,South,186,0.0,5.0,43,0.00,,,0.00,815.1,Custom,2013-07-16 20:40:00,
2013-07-16 15:45:00,97.1,70.0,30.11,South,169,0.0,0.0,42,0.00,,,0.00,829.92,Custom,2013-07-16 20:45:00,
2013-07-16 15:50:00,94.3,69.0,30.11,East,83,0.0,5.0,44,0.00,,,0.00,224.64,Custom,2013-07-16 20:50:00,
2013-07-16 15:55:00,91.4,68.0,30.10,SSW,203,0.0,8.0,47,0.00,,,0.00,569.79,Custom,2013-07-16 20:55:00,
2013-07-16 16:00:00,91.4,69.0,30.10,ESE,113,0.0,4.0,48,0.00,,,0.00,159.51,Custom,2013-07-16 21:00:00,
2013-07-16 16:05:00,90.6,68.0,30.10,SSE,168,0.0,4.0,48,0.00,,,0.00,112.71,Custom,2013-07-16 21:05:00,
2013-07-16 16:10:00,93.0,69.0,30.10,East,87,0.0,6.0,46,0.00,,,0.00,691.08,Custom,2013-07-16 21:10:00,
2013-07-16 16:15:00,94.5,70.0,30.10,East,100,0.0,5.0,45,0.00,,,0.00,685.23,Custom,2013-07-16 21:15:00,
2013-07-16 16:20:00,94.8,69.0,30.09,East,98,0.0,3.0,43,0.00,,,0.00,649.74,Custom,2013-07-16 21:20:00,
2013-07-16 16:25:00,95.1,70.0,30.09,ESE,106,0.0,3.0,45,0.00,,,0.00,631.41,Custom,2013-07-16 21:25:00,
2013-07-16 16:30:00,95.1,69.0,30.10,SSW,204,0.0,4.0,44,0.00,,,0.00,624,Custom,2013-07-16 21:30:00,
2013-07-16 16:35:00,94.7,70.0,30.09,SSE,159,0.0,4.0,45,0.00,,,0.00,599.04,Custom,2013-07-16 21:35:00,
2013-07-16 16:40:00,95.2,70.0,30.09,East,90,0.0,0.0,44,0.00,,,0.00,593.97,Custom,2013-07-16 21:40:00,
2013-07-16 16:45:00,94.6,69.0,30.09,ENE,64,0.0,3.0,44,0.00,,,0.00,583.83,Custom,2013-07-16 21:45:00,
2013-07-16 16:50:00,94.4,69.0,30.09,South,191,0.0,4.0,43,0.00,,,0.00,567.06,Custom,2013-07-16 21:50:00,
2013-07-16 16:55:00,95.3,68.0,30.10,East,87,0.0,3.0,42,0.00,,,0.00,552.63,Custom,2013-07-16 21:55:00,
2013-07-16 17:00:00,96.0,69.0,30.10,East,101,0.0,3.0,42,0.00,,,0.00,535.47,Custom,2013-07-16 22:00:00,
2013-07-16 17:05:00,96.3,69.0,30.10,SE,145,0.0,0.0,42,0.00,,,0.00,522.21,Custom,2013-07-16 22:05:00,
2013-07-16 17:10:00,95.7,68.0,30.10,SSW,203,0.0,1.0,41,0.00,,,0.00,499.98,Custom,2013-07-16 22:10:00,
2013-07-16 17:15:00,96.2,71.0,30.10,SSW,202,0.0,5.0,44,0.00,,,0.00,494.52,Custom,2013-07-16 22:15:00,
2013-07-16 17:20:00,95.7,68.0,30.10,ESE,120,0.0,1.0,41,0.00,,,0.00,481.26,Custom,2013-07-16 22:20:00,
2013-07-16 17:25:00,94.4,69.0,30.10,East,97,0.0,4.0,43,0.00,,,0.00,476.19,Custom,2013-07-16 22:25:00,
2013-07-16 17:30:00,94.8,68.0,30.10,ESE,107,0.0,5.0,42,0.00,,,0.00,81.9,Custom,2013-07-16 22:30:00,
2013-07-16 17:35:00,95.2,70.0,30.11,East,100,0.0,0.0,44,0.00,,,0.00,57.72,Custom,2013-07-16 22:35:00,
2013-07-16 17:40:00,93.8,68.0,30.10,SSW,206,2.0,6.0,43,0.00,,,0.00,51.09,Custom,2013-07-16 22:40:00,
2013-07-16 17:45:00,93.3,68.0,30.10,SE,143,0.0,2.0,44,0.00,,,0.00,47.58,Custom,2013-07-16 22:45:00,
2013-07-16 17:50:00,92.6,68.0,30.10,SSW,194,0.0,6.0,45,0.00,,,0.00,45.63,Custom,2013-07-16 22:50:00,
2013-07-16 17:55:00,91.9,67.0,30.10,SSW,210,0.0,2.0,43,0.00,,,0.00,43.29,Custom,2013-07-16 22:55:00,
2013-07-16 18:00:00,91.8,69.0,30.10,SSW,194,0.0,2.0,47,0.00,,,0.00,42.51,Custom,2013-07-16 23:00:00,
2013-07-16 18:05:00,92.0,69.0,30.10,SSW,195,1.0,2.0,47,0.00,,,0.00,46.8,Custom,2013-07-16 23:05:00,
2013-07-16 18:10:00,91.7,68.0,30.10,ESE,118,0.0,2.0,46,0.00,,,0.00,40.56,Custom,2013-07-16 23:10:00,
2013-07-16 18:15:00,91.6,68.0,30.10,SSW,195,0.0,5.0,46,0.00,,,0.00,49.92,Custom,2013-07-16 23:15:00,
2013-07-16 18:20:00,91.6,67.0,30.09,East,100,4.0,5.0,45,0.00,,,0.00,235.95,Custom,2013-07-16 23:20:00,
2013-07-16 18:25:00,91.3,67.0,30.09,South,191,0.0,5.0,45,0.00,,,0.00,53.82,Custom,2013-07-16 23:25:00,
2013-07-16 18:30:00,91.3,68.0,30.09,ESE,118,0.0,3.0,47,0.00,,,0.00,35.88,Custom,2013-07-16 23:30:00,
2013-07-16 18:35:00,91.1,68.0,30.09,ENE,66,0.0,2.0,47,0.00,,,0.00,37.05,Custom,2013-07-16 23:35:00,
2013-07-16 18:40:00,90.7,68.0,30.09,ESE,121,0.0,4.0,48,0.00,,,0.00,99.06,Custom,2013-07-16 23:40:00,
2013-07-16 18:45:00,90.8,69.0,30.09,East,83,0.0,4.0,48,0.00,,,0.00,88.53,Custom,2013-07-16 23:45:00,
2013-07-16 18:50:00,90.6,69.0,30.10,ENE,76,0.0,4.0,49,0.00,,,0.00,43.29,Custom,2013-07-16 23:50:00,
2013-07-16 18:55:00,90.0,69.0,30.10,East,92,0.0,4.0,49,0.00,,,0.00,47.19,Custom,2013-07-16 23:55:00,
2013-07-16 19:00:00,90.0,69.0,30.10,East,97,0.0,4.0,50,0.00,,,0.00,36.66,Custom,2013-07-17 00:00:00,
2013-07-16 19:05:00,89.8,69.0,30.11,East,96,0.0,0.0,51,0.00,,,0.00,59.67,Custom,2013-07-17 00:05:00,
2013-07-16 19:10:00,89.2,69.0,30.10,East,96,0.0,0.0,51,0.00,,,0.00,36.66,Custom,2013-07-17 00:10:00,
2013-07-16 19:15:00,89.1,69.0,30.10,East,97,0.0,1.0,52,0.00,,,0.00,25.74,Custom,2013-07-17 00:15:00,
2013-07-16 19:20:00,88.9,69.0,30.10,East,97,0.0,0.0,53,0.00,,,0.00,24.57,Custom,2013-07-17 00:20:00,
2013-07-16 19:25:00,88.6,69.0,30.10,East,88,0.0,3.0,52,0.00,,,0.00,24.18,Custom,2013-07-17 00:25:00,
2013-07-16 19:30:00,88.6,69.0,30.10,SSW,196,0.0,0.0,52,0.00,,,0.00,23.4,Custom,2013-07-17 00:30:00,
2013-07-16 19:35:00,87.9,69.0,30.10,SSW,196,0.0,0.0,55,0.00,,,0.00,22.23,Custom,2013-07-17 00:35:00,
2013-07-16 19:41:00,88.0,69.0,30.10,SSW,196,0.0,0.0,53,0.00,,,0.00,21.06,Custom,2013-07-17 00:41:00,
2013-07-16 19:46:00,87.8,70.0,30.10,SSW,196,0.0,0.0,55,0.00,,,0.00,19.5,Custom,2013-07-17 00:46:00,
2013-07-16 19:51:00,87.5,69.0,30.10,SSW,196,0.0,0.0,55,0.00,,,0.00,19.11,Custom,2013-07-17 00:51:00,
2013-07-16 19:56:00,87.2,69.0,30.10,SSW,196,0.0,0.0,55,0.00,,,0.00,17.94,Custom,2013-07-17 00:56:00,
2013-07-16 20:01:00,86.9,69.0,30.10,SSW,196,0.0,0.0,56,0.00,,,0.00,16.77,Custom,2013-07-17 01:01:00,
2013-07-16 20:06:00,86.4,69.0,30.10,SSW,196,0.0,0.0,56,0.00,,,0.00,15.21,Custom,2013-07-17 01:06:00,
2013-07-16 20:11:00,86.1,69.0,30.10,SSW,196,0.0,0.0,57,0.00,,,0.00,13.65,Custom,2013-07-17 01:11:00,
2013-07-16 20:16:00,85.5,69.0,30.10,SSW,196,0.0,0.0,58,0.00,,,0.00,12.48,Custom,2013-07-17 01:16:00,
2013-07-16 20:21:00,85.2,69.0,30.10,SSW,196,0.0,0.0,59,0.00,,,0.00,10.92,Custom,2013-07-17 01:21:00,
2013-07-16 20:26:00,84.8,69.0,30.11,SSW,196,0.0,0.0,60,0.00,,,0.00,8.97,Custom,2013-07-17 01:26:00,
2013-07-16 20:31:00,84.5,70.0,30.11,SSW,196,0.0,0.0,61,0.00,,,0.00,0,Custom,2013-07-17 01:31:00,
2013-07-16 20:36:00,84.2,69.0,30.11,SSW,196,0.0,0.0,61,0.00,,,0.00,0,Custom,2013-07-17 01:36:00,
2013-07-16 20:41:00,83.7,69.0,30.11,SSW,196,0.0,0.0,62,0.00,,,0.00,0,Custom,2013-07-17 01:41:00,
2013-07-16 20:46:00,83.3,69.0,30.11,SSW,196,0.0,0.0,63,0.00,,,0.00,0,Custom,2013-07-17 01:46:00,
2013-07-16 20:51:00,83.1,69.0,30.11,SSW,196,0.0,0.0,63,0.00,,,0.00,0,Custom,2013-07-17 01:51:00,
2013-07-16 20:56:00,83.2,69.0,30.11,SSW,196,0.0,0.0,63,0.00,,,0.00,0,Custom,2013-07-17 01:56:00,
2013-07-16 21:01:00,83.2,69.0,30.11,SSW,196,0.0,0.0,63,0.00,,,0.00,0,Custom,2013-07-17 02:01:00,
2013-07-16 21:06:00,83.2,69.0,30.11,SSW,196,0.0,0.0,62,0.00,,,0.00,0,Custom,2013-07-17 02:06:00,
2013-07-16 21:11:00,82.9,69.0,30.11,SSW,196,0.0,0.0,63,0.00,,,0.00,0,Custom,2013-07-17 02:11:00,
2013-07-16 21:16:00,82.9,69.0,30.11,SSW,196,0.0,0.0,63,0.00,,,0.00,0,Custom,2013-07-17 02:16:00,
2013-07-16 21:21:00,82.3,69.0,30.12,SSW,196,0.0,0.0,64,0.00,,,0.00,0,Custom,2013-07-17 02:21:00,
2013-07-16 21:26:00,82.0,69.0,30.12,SSW,196,0.0,0.0,65,0.00,,,0.00,0,Custom,2013-07-17 02:26:00,
2013-07-16 21:31:00,81.6,69.0,30.12,SSW,196,0.0,0.0,65,0.00,,,0.00,0,Custom,2013-07-17 02:31:00,
2013-07-16 21:36:00,81.8,69.0,30.12,SSW,196,0.0,0.0,64,0.00,,,0.00,0,Custom,2013-07-17 02:36:00,
2013-07-16 21:41:00,81.6,69.0,30.13,SSW,196,0.0,0.0,65,0.00,,,0.00,0,Custom,2013-07-17 02:41:00,
2013-07-16 21:46:00,80.7,69.0,30.13,SSW,196,0.0,0.0,67,0.00,,,0.00,0,Custom,2013-07-17 02:46:00,
2013-07-16 21:51:00,80.5,69.0,30.14,SSW,195,0.0,0.0,68,0.00,,,0.00,0,Custom,2013-07-17 02:51:00,
2013-07-16 21:56:00,80.6,69.0,30.14,SSW,195,0.0,1.0,68,0.00,,,0.00,0,Custom,2013-07-17 02:56:00,
2013-07-16 22:01:00,80.9,69.0,30.14,SSW,194,0.0,2.0,67,0.00,,,0.00,0,Custom,2013-07-17 03:01:00,
2013-07-16 22:06:00,81.2,69.0,30.14,South,187,3.0,4.0,67,0.00,,,0.00,0,Custom,2013-07-17 03:06:00,
2013-07-16 22:11:00,81.2,69.0,30.14,South,186,0.0,2.0,67,0.00,,,0.00,0,Custom,2013-07-17 03:11:00,
2013-07-16 22:16:00,81.1,69.0,30.14,SSW,197,0.0,4.0,67,0.00,,,0.00,0,Custom,2013-07-17 03:16:00,
2013-07-16 22:21:00,81.1,69.0,30.14,SSE,165,0.0,4.0,68,0.00,,,0.00,0,Custom,2013-07-17 03:21:00,
2013-07-16 22:26:00,81.1,69.0,30.14,SSE,166,0.0,0.0,67,0.00,,,0.00,0,Custom,2013-07-17 03:26:00,
2013-07-16 22:31:00,80.8,69.0,30.14,SSE,166,0.0,0.0,68,0.00,,,0.00,0,Custom,2013-07-17 03:31:00,
2013-07-16 22:36:00,80.5,69.0,30.14,SSE,166,0.0,1.0,68,0.00,,,0.00,0,Custom,2013-07-17 03:36:00,
2013-07-16 22:41:00,80.3,69.0,30.15,South,170,0.0,3.0,69,0.00,,,0.00,0,Custom,2013-07-17 03:41:00,
2013-07-16 22:46:00,80.0,69.0,30.14,South,170,2.0,0.0,70,0.00,,,0.00,0,Custom,2013-07-17 03:46:00,
2013-07-16 22:51:00,79.8,69.0,30.15,South,170,0.0,1.0,70,0.00,,,0.00,0,Custom,2013-07-17 03:51:00,
2013-07-16 22:56:00,79.6,69.0,30.15,South,170,0.0,0.0,70,0.00,,,0.00,0,Custom,2013-07-17 03:56:00,
2013-07-16 23:01:00,79.4,69.0,30.15,South,170,0.0,0.0,71,0.00,,,0.00,0,Custom,2013-07-17 04:01:00,
2013-07-16 23:03:00,79.4,69.0,30.15,South,170,0.0,0.0,70,0.00,,,0.00,0,Custom,2013-07-17 04:03:00,
2013-07-16 23:04:00,79.4,69.0,30.15,South,170,0.0,0.0,71,0.00,,,0.00,0,Custom,2013-07-17 04:04:00,
2013-07-16 23:09:00,79.2,69.0,30.15,South,170,0.0,0.0,71,0.00,,,0.00,0,Custom,2013-07-17 04:09:00,
2013-07-16 23:14:00,79.1,69.0,30.15,South,170,0.0,0.0,72,0.00,,,0.00,0,Custom,2013-07-17 04:14:00,
2013-07-16 23:19:00,78.6,69.0,30.15,South,170,0.0,0.0,73,0.00,,,0.00,0,Custom,2013-07-17 04:19:00,
2013-07-16 23:24:00,78.3,69.0,30.15,South,170,0.0,0.0,73,0.00,,,0.00,0,Custom,2013-07-17 04:24:00,
2013-07-16 23:29:00,78.3,69.0,30.15,South,170,0.0,0.0,73,0.00,,,0.00,0,Custom,2013-07-17 04:29:00,
2013-07-16 23:34:00,77.7,69.0,30.15,South,170,0.0,0.0,74,0.00,,,0.00,0,Custom,2013-07-17 04:34:00,
2013-07-16 23:39:00,77.7,69.0,30.15,South,170,0.0,0.0,74,0.00,,,0.00,0,Custom,2013-07-17 04:39:00,
2013-07-16 23:44:00,77.6,69.0,30.16,South,170,0.0,0.0,75,0.00,,,0.00,0,Custom,2013-07-17 04:44:00,
2013-07-16 23:49:00,77.1,69.0,30.16,South,170,0.0,0.0,76,0.00,,,0.00,0,Custom,2013-07-17 04:49:00,
2013-07-16 23:54:00,77.0,69.0,30.16,South,170,0.0,0.0,76,0.00,,,0.00,0,Custom,2013-07-17 04:54:00,
2013-07-16 23:56:00,76.8,69.0,30.16,South,170,0.0,0.0,77,0.00,,,0.00,0,Custom,2013-07-17 04:56:00,